Mount Pleasant, TX

11:28 AM CDT on June 21, 2018 (GMT -0500)
Mount Pleasant

Weather History for KOSA - August, 2017

Change the Weather History Date:

Saturday, August 12, 2017

  Actual Average (KGGG) Record (KGGG)
Temperature  
Mean Temperature 83 °F -  
Max Temperature 91 °F 91 °F 108 °F (1936)
Min Temperature 75 °F 70 °F 58 °F (1967)
Cooling Degree Days 18    
Growing Degree Days 33 (Base 50)    
Moisture  
Dew Point 74 °F    
Average Humidity 81    
Maximum Humidity 100    
Minimum Humidity 53    
Precipitation  
Precipitation 0.04 in - - ()
Sea Level Pressure  
Sea Level Pressure 29.98 in    
Wind  
Wind Speed 2 mph (ESE)    
Max Wind Speed 13 mph    
Max Gust Speed -    
Visibility 8 miles    
Events      
Averages and records for this station are not official NWS values.
T = Trace of Precipitation, MM = Missing Value Source: NWS Daily Summary

Daily Weather History Graph

Daily Weather History Graph

Search for Another Location

Airport or City:

Astronomy

Aug. 12, 2017 Rise Set
Actual Time 6:40 AM CDT 8:08 PM CDT
Civil Twilight 6:14 AM CDT 8:34 PM CDT
Nautical Twilight 5:43 AM CDT 9:05 PM CDT
Astronomical Twilight 5:10 AM CDT 9:38 PM CDT
Moon 11:22 PM CDT (8/12) 11:21 AM CDT (8/12)
Length of Visible Light 14h 19m
Length of Day
13h 27m
Waning Gibbous, 75% of the Moon is Illuminated
Aug 12
Waning Gibbous
Aug 14
Last Quarter
Aug 21
New
Aug 29
First Quarter
Sep 6
Full

Hourly Weather History & Observations

Time (CDT) Temp. Heat Index Dew Point Humidity Pressure Visibility Wind Dir Wind Speed Gust Speed Precip Events Conditions
12:15 AM 80.2 °F 84.9 °F 73.9 °F 81% 30.00 in 10.0 mi Calm Calm - N/A   Clear
12:35 AM 78.4 °F - 74.5 °F 88% 30.00 in 10.0 mi Calm Calm - N/A   Clear
12:55 AM 77.2 °F - 74.7 °F 92% 29.99 in 10.0 mi North 3.5 mph - N/A   Clear
1:15 AM 77.5 °F - 74.1 °F 89% 29.99 in 10.0 mi Calm Calm - N/A   Clear
1:35 AM 76.5 °F - 74.3 °F 93% 29.99 in 10.0 mi Calm Calm - N/A   Clear
1:55 AM 76.1 °F - 75.9 °F 99% 29.99 in 10.0 mi Calm Calm - N/A   Clear
2:15 AM 75.6 °F - 75.6 °F 100% 29.99 in 7.0 mi South 3.5 mph - N/A   Clear
2:35 AM - - - N/A% 29.99 in 7.0 mi Calm Calm - N/A   Clear
2:55 AM - - - N/A% 29.99 in 10.0 mi Calm Calm - N/A   Clear
3:15 AM - - - N/A% 29.99 in 7.0 mi Calm Calm - N/A   Clear
3:35 AM - - - N/A% 29.99 in 10.0 mi Calm Calm - N/A   Clear
3:55 AM - - - N/A% 29.99 in 7.0 mi Calm Calm - N/A   Clear
4:15 AM - - - N/A% 29.98 in 10.0 mi North 3.5 mph - N/A   Clear
4:35 AM - - - N/A% 29.98 in 7.0 mi Calm Calm - N/A   Clear
4:55 AM - - - N/A% 29.98 in 5.0 mi Calm Calm - N/A   Clear
5:15 AM - - - N/A% 29.99 in 7.0 mi Calm Calm - N/A   Clear
5:35 AM - - - N/A% 29.99 in 3.0 mi Calm Calm - N/A   Clear
5:55 AM - - - N/A% 30.00 in 10.0 mi Calm Calm - N/A   Clear
6:15 AM - - - N/A% 30.00 in 4.0 mi Calm Calm - N/A   Clear
6:35 AM - - - N/A% 30.00 in 0.8 mi Calm Calm - N/A   Unknown
6:55 AM - - - N/A% 30.01 in 1.5 mi Calm Calm - N/A   Unknown
7:15 AM - - - N/A% 30.01 in 3.0 mi Calm Calm - N/A   Clear
7:35 AM - - - N/A% 30.02 in 5.0 mi Calm Calm - N/A   Clear
7:55 AM - - - N/A% 30.02 in 7.0 mi Calm Calm - N/A   Clear
8:15 AM - - - N/A% 30.02 in 10.0 mi Calm Calm - N/A   Clear
8:35 AM 79.0 °F - 74.5 °F 86% 30.02 in 10.0 mi Calm Calm - N/A   Clear
8:55 AM 80.6 °F 85.2 °F 73.2 °F 78% 30.02 in 10.0 mi NE 4.6 mph - N/A   Clear
9:15 AM 82.0 °F 87.2 °F 72.5 °F 73% 30.02 in 10.0 mi ENE 4.6 mph - N/A   Clear
9:35 AM 83.5 °F 89.4 °F 72.7 °F 70% 30.02 in 10.0 mi ENE 3.5 mph - N/A   Clear
9:55 AM 84.6 °F 90.7 °F 72.5 °F 67% 30.02 in 10.0 mi ESE 4.6 mph - N/A   Clear
10:15 AM 85.8 °F 92.6 °F 72.7 °F 65% 30.02 in 10.0 mi East 4.6 mph - N/A   Clear
10:35 AM 86.5 °F 92.5 °F 71.6 °F 61% 30.03 in 10.0 mi ENE 5.8 mph - N/A   Clear
10:55 AM 87.1 °F 94.1 °F 72.5 °F 62% 30.02 in 10.0 mi ENE 3.5 mph - N/A   Clear
11:15 AM 88.0 °F 95.1 °F 72.3 °F 60% 30.02 in 10.0 mi ENE 3.5 mph - N/A   Clear
11:35 AM 88.3 °F 95.4 °F 72.3 °F 59% 30.02 in 10.0 mi Calm Calm - N/A   Clear
11:55 AM 89.2 °F 96.4 °F 72.3 °F 57% 30.01 in 10.0 mi Calm Calm - N/A   Scattered Clouds
12:15 PM 89.6 °F 97.7 °F 72.9 °F 58% 30.01 in 10.0 mi Calm Calm - N/A   Scattered Clouds
12:35 PM 90.3 °F 98.2 °F 72.9 °F 56% 30.00 in 10.0 mi SE 3.5 mph - N/A   Scattered Clouds
12:55 PM 90.9 °F 100.0 °F 73.8 °F 57% 30.00 in 10.0 mi SSE 4.6 mph - N/A   Scattered Clouds
1:15 PM 91.4 °F 100.1 °F 73.0 °F 55% 30.00 in 10.0 mi SSW 4.6 mph - N/A   Scattered Clouds
1:35 PM 90.7 °F 97.4 °F 71.6 °F 53% 29.99 in 10.0 mi Calm Calm - N/A   Clear
1:55 PM 91.4 °F 100.7 °F 73.6 °F 56% 29.99 in 10.0 mi South 3.5 mph - N/A   Clear
2:15 PM 90.7 °F 99.6 °F 73.6 °F 57% 29.96 in 10.0 mi South 3.5 mph - N/A   Clear
2:35 PM 91.0 °F 99.3 °F 72.9 °F 55% 29.97 in 10.0 mi East 3.5 mph - N/A   Scattered Clouds
2:55 PM 87.1 °F 95.9 °F 74.5 °F 66% 29.96 in 10.0 mi NE 4.6 mph - N/A   Mostly Cloudy
3:15 PM 82.4 °F 89.5 °F 75.4 °F 79% 29.96 in 2.0 mi North 5.8 mph - 0.04 in   Overcast
3:35 PM - - - N/A% 29.98 in - East 12.7 mph - N/A   Unknown
3:55 PM 75.7 °F - 72.5 °F 90% 29.97 in 7.0 mi East 6.9 mph - N/A   Unknown
4:15 PM 76.1 °F - 72.9 °F 90% 29.95 in 10.0 mi Calm Calm - N/A   Clear
4:35 PM 77.0 °F - 73.4 °F 89% 29.96 in 10.0 mi East 3.5 mph - N/A   Clear
4:55 PM 76.3 °F - 73.4 °F 91% 29.96 in 7.0 mi Calm Calm - N/A   Clear
5:15 PM 76.6 °F - 74.3 °F 92% 29.95 in 7.0 mi Calm Calm - N/A   Clear
5:35 PM 78.4 °F - 74.1 °F 87% 29.94 in 10.0 mi Calm Calm - N/A   Clear
5:55 PM 79.2 °F - 74.3 °F 85% 29.92 in 10.0 mi Calm Calm - N/A   Clear
6:15 PM 79.7 °F - 74.7 °F 84% 29.94 in 10.0 mi Calm Calm - N/A   Clear
6:35 PM 79.2 °F - 75.0 °F 87% 29.95 in 10.0 mi Calm Calm - N/A   Clear
6:55 PM 79.2 °F - 75.4 °F 88% 29.95 in 10.0 mi Calm Calm - N/A   Clear
7:15 PM 79.3 °F - 75.2 °F 87% 29.95 in 10.0 mi Calm Calm - N/A   Clear
7:35 PM 78.6 °F - 75.7 °F 91% 29.93 in 10.0 mi East 3.5 mph - N/A   Clear
7:55 PM 77.9 °F - 76.3 °F 95% 29.94 in 5.0 mi Calm Calm - N/A   Clear
8:15 PM 77.9 °F - 76.6 °F 96% 29.92 in 7.0 mi East 5.8 mph - N/A   Clear
8:35 PM 78.3 °F - 77.0 °F 96% 29.92 in 7.0 mi SE 9.2 mph - N/A   Clear
8:55 PM 78.4 °F - 76.8 °F 95% 29.93 in 10.0 mi SE 5.8 mph - N/A   Clear
9:15 PM 78.3 °F - 77.2 °F 96% 29.95 in 7.0 mi Calm Calm - N/A   Clear
9:35 PM 78.6 °F - 77.4 °F 96% 29.95 in 7.0 mi Calm Calm - N/A   Scattered Clouds
9:55 PM 78.4 °F - 78.1 °F 99% 29.95 in 7.0 mi Calm Calm - N/A   Clear
10:15 PM 78.4 °F - 78.4 °F 100% 29.96 in 7.0 mi ESE 3.5 mph - N/A   Scattered Clouds
10:35 PM 78.8 °F - 78.8 °F 100% 29.97 in 7.0 mi SSW 4.6 mph - N/A   Scattered Clouds
10:55 PM 78.8 °F - 78.8 °F 100% 29.95 in 10.0 mi SE 6.9 mph - N/A   Mostly Cloudy
11:15 PM 77.7 °F - 76.5 °F 96% 29.94 in 10.0 mi SSE 10.4 mph - N/A   Scattered Clouds
11:35 PM 77.0 °F - 74.5 °F 92% 29.96 in 10.0 mi South 3.5 mph - N/A   Clear
11:55 PM 77.2 °F - 74.3 °F 91% 29.95 in 10.0 mi ENE 4.6 mph - N/A   Clear